Location: Poprad
(49.0500°N, 20.3000°E)
Time: 18:56:31
(UTC+02:00)

ITUPSAT 1 - Pass Details

Date: 28 April 2024
Orbit: 694 x 707 km, 98.5° (Epoch: 20 May)

Event Time Altitude Azimuth Distance (km) Brightness Sun altitude
Rises 22:23:46 0° 19° (NNE) 3,085 ? -20.0°
Reaches altitude 10° 22:26:06 10° 25° (NNE) 2,162 ? -20.2°
Maximum altitude 22:30:41 48° 100° (E) 904 ? -20.6°
Enters shadow 22:31:13 46° 122° (ESE) 931 ? -20.7°
